Location: Cuiry
(49.3858°N, 3.7708°E)
Time: 19:54:07
(UTC+00:00)

Cosmos 1603 - Pass Details

Date: 12 January 2026
Orbit: 831 x 857 km, 71.0° (Epoch: 16 February)

Event Time Altitude Azimuth Distance (km) Brightness Sun altitude
Rises 18:46:43 0° 211° (SSW) 3,390 7.3 -24.7°
Reaches altitude 10° 18:49:10 10° 213° (SSW) 2,455 6.6 -25.1°
Maximum altitude 18:54:48 77° 300° (WNW) 865 3.7 -26.1°
Enters shadow 18:56:21 49° 14° (NNE) 1,071 4.0 -26.3°
